Regional Weather Roundup
Issued by NWS

Home | Current Version | Previous Version | Text Only | Print | Product List | Glossary On
Versions: 1 2 3 4 5 6 7 8 9 10 11 12 13 14 15 16 17 18 19 20 21 22 23 24 25 26 27 28 29 30 31 32 33 34 35 36 37 38 39 40 41 42 43 44 45 46 47 48 49 50
000
ASUS45 KABQ 192010
RWRNM
WEATHER ROUNDUP FOR NEW MEXICO
NATIONAL WEATHER SERVICE ALBUQUERQUE NM
200 PM MDT SAT APR 19 2014

NOTE: "FAIR" MEANS FEW OR NO CLOUDS BELOW 12,000 FEET AGL WITH NO
       SIGNIFICANT WEATHER OR OBSTRUCTIONS TO VISION.

      THIS PRODUCT IS RELEASED AS TWO VERSIONS.  ONE VERSION NEAR
      THE TOP OF THE HOUR CONTAINING PRELIMINARY DATA FROM ALBUQUERQUE
      AND OTHER STATIONS.  A FINAL VERSION WITH ADDITIONAL DATA IS
      ISSUED ABOUT 10 MINUTES AFTER THE HOUR.

NMZ501-503-504-510>518-192100-
NORTHWEST PLATEAU/NORTHCENTRAL MOUNTAINS

CITY           SKY/WX    TMP DP  RH WIND       PRES   REMARKS
FARMINGTON     PTSUNNY   64  33  31 W6        30.07F
LOS ALAMOS     CLOUDY    58  35  43 E6        30.15S
SANTA FE       CLOUDY    63  34  33 SW15      30.10S
TAOS           PTSUNNY   61  30  31 N5        30.14F
ANGEL FIRE     FAIR      58  28  31 SW13      30.18F

$$
NMZ402-403-502-505>509-192100-
WESTCENTRAL MOUNTAINS/SOUTHWEST MOUNTAINS

CITY           SKY/WX    TMP DP  RH WIND       PRES   REMARKS
GALLUP         CLOUDY    62  32  32 NW14      30.10F
GRANTS         CLOUDY    59  32  36 SE3       30.14S
SILVER CITY    MOSUNNY   64  39  39 NW6       30.11F

$$
NMZ407-409-411-412-192100-
SOUTHERN DESERTS

CITY           SKY/WX    TMP DP  RH WIND       PRES   REMARKS
LORDSBURG      MOCLDY    70  45  40 W9        30.04S
DEMING         MOSUNNY   69  43  38 N8        30.05F
LAS CRUCES     SUNNY     70  40  34 N10       30.07F
HOLLOMAN AFB   LGT RAIN  64  52  63 N13       30.09R
ALAMOGORDO     LGT RAIN  64  48  55 N14G20    30.10S
T OR C         MOSUNNY   62  47  57 NE12      30.09F

$$
NMZ519>523-192100-
CENTRAL VALLEYS/CENTRAL HIGHLANDS

CITY           SKY/WX    TMP DP  RH WIND       PRES   REMARKS
ALBUQUERQUE    CLOUDY    56  46  69 S16       30.13S
DOUBLE EAGLE   CLOUDY    57  45  62 SE16      30.13F
MORIARTY ARPT  LGT RAIN  47  44  88 S15       30.19R
CLINES CORNERS RAIN      45  42  89 SW16      30.19R FOG
BELEN          MOCLDY    54  49  83 S15       30.14S
SOCORRO        PTSUNNY   54  49  82 SE5       30.13F

$$
NMZ524>526-539-540-192100-
SOUTHCENTRAL MOUNTAINS

CITY           SKY/WX    TMP DP  RH WIND       PRES   REMARKS
RUIDOSO        CLOUDY    48  45  87 NW12      30.21S

$$
NMZ527>531-192100-
NORTHEAST HIGHLANDS/NORTHEAST PLAINS

CITY           SKY/WX    TMP DP  RH WIND       PRES   REMARKS
LAS VEGAS      LGT RAIN  58  35  42 SE28      30.10S
RATON          MOSUNNY   72  26  18 S10       30.02F
CLAYTON        PTSUNNY   75  42  30 S30G38    30.01F

$$
NMZ532>537-192100-
EASTCENTRAL PLAINS

CITY           SKY/WX    TMP DP  RH WIND       PRES   REMARKS
TUCUMCARI      CLOUDY    72  47  40 SW28G36   30.05R
CANNON AFB     CLOUDY    62  50  66 S15       30.12S
CLOVIS AIRPORT CLOUDY    61  48  63 S16       30.14R

$$
NMZ028-029-538-192100-
SOUTHEAST PLAINS

CITY           SKY/WX    TMP DP  RH WIND       PRES   REMARKS
ROSWELL        CLOUDY    57  55  93 SE10      30.12R
ARTESIA        CLOUDY    57  54  88 SW8G16    30.10R
CARLSBAD       CLOUDY    62  58  86 NE10      30.05R
HOBBS          LGT RAIN  63  55  77 W12       30.16S


$$



USA.gov is the U.S. government's official web portal to all federal, state and local government web resources and services.